Simultaneous Nadir Overpasses (SNOs) Predictions

Prediction of SNOs between METOP-B and NOAA-19 Satellite Orbit:

Table of predicted SNOs for the next 14.0 days since TLE Epoch: 3/20/2021
Index Date (METOP-B) Time (METOP-B) Lat,Lon (METOP-B) SZA (METOP-B ) Date (NOAA-19) Time (NOAA-19) Lat,Lon (NOAA-19) SZA (NOAA-19 ) Distance(km) Time Diff (sec)
1 03/25/2021 11:38:21 80.44, 32.54 79.34 03/25/2021 11:37:13 80.45, 32.46 79.33 1.87 68
2 03/25/2021 12:29:02 -80.45,-160.11 100.67 03/25/2021 12:28:18 -80.45,-160.18 100.69 1.25 44
3 03/25/2021 13:19:43 80.43, 7.05 79.30 03/25/2021 13:19:13 80.45, 7.10 79.30 1.78 30
4 03/25/2021 14:10:24 -80.43, 174.40 100.72 03/25/2021 14:10:18 -80.44, 174.46 100.71 1.28 6
5 03/25/2021 15:01:04 80.45, -18.11 79.29 03/25/2021 15:01:13 80.44, -18.26 79.28 2.93 9
6 03/25/2021 15:51:45 -80.45, 149.24 100.72 03/25/2021 15:52:18 -80.43, 149.10 100.73 3.02 33
7 03/25/2021 16:42:26 80.44, -43.60 79.25 03/25/2021 16:43:13 80.43, -43.62 79.26 0.55 47



Historial Predications of SNOs between METOP-B and NOAA-19
